Wind_Gust
18 16 15 14 13 11 10 10 9 7 11 15 10 7 11 13 11 11 19 19 23 20 22 22 24 24 18 16 28 18 17 11 9 11 11 16 17 17 18 16 17 20 24 29 34 31 37 33 33 26 28 30 25 29 34 28 31 34 38 30 24 13 22 28 28 28 27 21 20 20 18 22 31 33 28 29 33 31 29 28 22 27 24 27 22 18 15
18 17 16 15 13 11 11 10 10 8 8 15 12 12 13 13 18 21 18 18 18 20 23 23 22 23 17 18 21 10 15 14 10 13 12 18 14 18 16 13 18 19 22 26 35 33 27 31 29 29 24 32 22 27 29 29 37 38 30 35 27 31 22 22 26 33 27 22 25 26 23 28 29 29 31 29 31 30 27 25 15 22 25 25 21 21 14
20 18 17 17 15 12 11 11 10 10 6 15 10 13 11 16 19 18 22 17 17 20 13 19 15 18 17 17 17 15 14 10 14 14 20 17 18 16 18 21 13 19 21 22 27 32 23 33 29 16 23 25 21 21 30 27 27 27 25 17 24 23 19 25 31 33 33 36 37 37 35 34 32 29 28 22 25 31 33 31 24 18 22 25 24 18 21
20 19 19 19 17 16 12 8 7 8 8 8 12 12 16 22 18 20 20 22 20 22 20 18 17 16 14 12 16 14 17 13 14 16 23 20 21 24 22 18 18 20 21 24 29 29 23 23 25 25 23 24 33 23 27 27 30 18 11 13 25 22 13 16 18 24 27 23 22 20 24 27 36 26 22 24 22 21 22 20 22 21 12 17 14 31 28
21 20 20 19 19 17 14 9 7 8 9 9 18 15 16 18 16 19 18 18 20 19 15 15 13 11 12 13 12 13 14 13 20 15 22 14 19 21 23 21 21 22 21 22 27 25 25 21 22 24 19 21 26 25 27 31 19 15 19 16 22 18 19 13 15 16 18 14 13 17 25 30 28 24 23 22 22 17 19 18 22 15 19 17 15 33 36
22 22 21 20 20 18 15 10 9 9 11 8 10 15 15 13 15 11 13 14 16 17 14 9 9 11 10 11 12 14 16 15 16 13 21 16 15 17 15 23 22 22 23 23 25 28 24 25 22 25 25 24 26 32 28 32 18 20 27 24 21 21 16 15 17 19 19 11 12 17 25 21 22 23 21 20 18 17 20 19 14 12 17 18 24 25 29
22 23 22 21 21 20 17 14 12 10 10 8 15 14 8 13 13 11 14 10 11 10 13 10 9 9 11 11 13 20 19 22 22 22 15 15 16 20 10 19 24 24 25 25 24 29 29 20 24 26 25 21 30 31 31 24 25 26 25 25 20 19 16 17 17 23 21 18 16 17 24 24 20 18 18 16 18 17 16 17 13 14 17 31 30 25 27
23 23 22 22 21 20 19 18 14 14 15 13 17 13 13 10 9 9 8 10 13 12 10 10 13 14 14 11 15 18 17 18 16 18 19 14 18 15 19 21 24 25 24 25 24 23 20 20 16 19 22 24 24 27 25 26 27 31 27 24 17 17 19 15 20 23 22 19 19 18 21 23 24 20 21 21 22 23 23 25 29 33 29 29 31 32 27
23 23 22 23 22 21 21 20 18 18 18 17 14 8 9 9 8 10 9 11 11 10 11 15 15 13 14 22 19 16 18 18 15 18 16 16 12 13 17 21 19 24 21 19 13 13 15 14 14 14 18 23 20 21 24 25 29 29 25 24 20 22 20 17 20 21 22 19 20 24 26 27 27 24 22 19 17 17 15 16 12 25 32 31 30 25 22
23 23 23 24 23 22 21 19 18 18 22 18 14 9 8 13 8 9 8 5 6 10 14 16 13 14 19 24 19 18 10 9 13 12 12 15 16 15 13 18 17 18 30 23 16 18 18 20 20 21 18 16 16 19 23 24 28 28 27 22 26 24 27 21 19 19 19 17 18 24 25 24 17 17 17 16 16 19 23 26 25 26 31 29 19 21 26
23 23 23 23 23 22 20 19 16 13 19 14 13 11 10 12 9 7 8 7 9 15 12 13 15 12 16 11 11 10 16 20 10 10 11 9 13 14 14 16 23 20 23 20 15 20 23 19 19 23 24 21 18 16 15 21 21 23 26 24 24 25 25 22 21 21 21 16 17 17 19 23 18 11 10 12 13 18 25 26 21 17 14 20 24 33 30
23 24 23 24 23 21 20 18 16 11 9 16 13 14 11 9 13 14 8 8 7 10 10 11 10 12 12 12 17 19 18 16 16 15 11 12 12 12 23 28 27 24 14 11 16 21 27 24 24 25 25 22 21 21 20 19 15 15 21 20 21 22 21 20 23 21 25 21 15 17 23 12 7 10 8 11 15 22 25 21 16 19 27 30 33 31 28
24 24 24 25 24 23 21 19 16 13 9 16 14 13 7 7 15 14 11 14 7 7 7 9 11 10 11 16 19 22 23 20 20 18 13 14 14 19 19 23 30 27 15 12 20 23 22 20 22 21 22 15 18 21 22 21 19 13 19 22 22 18 20 25 21 22 21 23 25 25 17 11 10 10 12 16 22 24 27 25 20 17 20 27 32 29 28
25 25 25 25 24 23 22 20 17 13 10 11 15 15 10 10 15 12 9 10 8 9 10 11 14 15 12 15 20 21 21 20 18 17 20 16 20 20 20 24 22 16 8 11 11 15 20 19 18 15 15 11 15 16 15 20 19 16 16 19 18 17 16 17 21 28 26 19 17 16 16 14 12 15 16 24 20 21 13 17 13 11 18 23 31 29 28
26 25 26 26 25 26 24 21 18 14 7 9 16 15 13 12 13 14 9 14 10 12 11 15 12 13 11 15 14 17 17 18 21 22 21 20 22 18 16 15 13 9 8 11 16 13 14 17 18 20 19 15 15 14 15 16 13 15 13 12 15 19 20 17 19 15 17 22 19 19 17 17 18 13 14 9 10 12 19 24 15 10 16 22 27 30 30
26 27 27 27 26 26 24 22 19 13 8 7 14 12 11 8 9 14 15 17 17 13 18 16 14 15 16 17 14 15 14 14 16 20 21 23 22 19 14 11 9 9 13 15 20 19 18 17 19 20 23 16 9 25 18 24 18 10 9 11 11 10 14 13 14 15 16 19 21 22 22 12 13 21 17 14 11 9 14 14 15 17 18 22 25 29 29
28 28 27 27 27 27 25 23 18 11 6 7 14 8 10 10 13 14 18 15 18 16 17 20 16 16 16 16 12 16 14 12 12 17 17 19 21 19 17 14 12 14 14 15 19 23 22 21 22 19 15 24 22 15 24 22 20 19 15 14 16 16 18 19 15 12 16 14 18 16 16 12 12 18 17 17 14 12 14 19 22 25 22 24 25 27 28
28 28 28 27 27 27 26 23 19 13 7 8 18 10 9 10 12 15 17 16 16 19 21 20 21 22 23 18 17 14 11 14 15 14 17 19 19 17 19 19 19 13 11 9 14 16 14 17 14 18 16 13 14 23 14 15 20 14 21 14 18 16 16 18 13 15 14 11 15 19 14 16 16 17 16 14 12 12 16 17 22 30 27 26 26 26 26
27 27 27 27 26 25 24 22 19 15 8 8 20 19 11 8 8 12 15 20 16 14 20 21 19 20 20 14 13 15 15 12 11 13 15 12 14 13 9 13 13 15 14 12 11 11 10 9 11 16 19 15 16 11 19 16 10 10 11 13 11 11 6 8 10 14 16 16 13 17 18 9 15 15 14 14 14 11 13 21 27 33 30 27 25 26 24
27 27 27 27 27 25 24 23 21 18 10 6 14 13 12 7 8 10 14 17 17 18 20 22 23 24 24 24 24 23 21 16 25 14 10 12 11 12 12 14 17 11 9 12 8 10 12 15 10 11 15 18 16 16 18 13 14 15 9 9 10 12 8 15 14 8 10 12 20 16 14 12 12 16 14 14 9 15 22 29 27 27 30 29 27 26 24
27 27 26 26 27 26 24 23 24 21 14 8 9 15 9 10 8 9 12 14 18 10 17 18 19 22 24 22 19 20 19 21 21 21 16 14 13 12 14 10 13 15 12 11 12 12 7 11 13 8 16 12 16 17 15 14 15 13 17 14 16 17 14 13 14 17 14 20 15 12 20 27 21 19 13 13 16 22 25 28 31 28 30 30 29 25 21
28 28 27 27 27 26 25 23 22 21 16 10 10 17 10 11 8 9 10 13 14 16 11 13 14 14 15 17 16 15 17 17 17 15 19 13 11 10 10 9 13 12 12 13 13 9 13 9 11 12 12 15 16 11 19 20 16 15 11 12 12 21 17 20 16 19 18 16 17 15 18 22 16 15 21 20 21 22 23 24 28 30 29 27 29 26 23
29 29 29 29 28 26 25 23 20 18 16 14 11 15 15 10 11 7 11 14 14 8 9 9 8 16 14 20 18 16 14 12 12 13 13 18 9 10 13 10 11 12 8 12 15 16 11 15 11 9 14 13 12 16 14 13 18 18 13 20 20 14 16 18 24 23 26 25 19 15 19 19 17 15 17 20 19 21 22 25 27 25 27 26 28 27 27
29 29 29 29 29 27 25 25 23 20 18 15 10 16 12 11 10 10 13 15 10 16 19 22 15 19 24 21 21 17 19 18 17 12 9 10 14 10 15 15 14 10 11 12 10 14 14 13 13 8 13 15 12 17 15 13 11 18 18 14 13 11 10 10 20 25 14 15 12 16 19 19 19 20 19 18 19 21 22 23 25 25 24 25 27 29 28
29 28 29 29 29 29 27 26 24 23 22 21 19 12 16 12 9 12 15 9 5 6 14 13 19 19 16 16 17 20 22 18 14 12 9 8 11 16 14 12 13 15 14 10 6 9 6 8 13 11 11 12 16 10 15 14 15 14 13 16 16 15 10 21 18 15 11 20 17 17 17 19 19 20 20 21 22 22 20 22 22 24 25 27 27 27 27
28 28 28 28 28 28 27 24 23 21 22 24 18 17 14 13 12 11 14 15 13 10 13 15 19 16 17 18 24 21 18 18 19 19 18 20 19 17 15 12 13 11 11 8 8 5 6 6 8 11 14 9 15 12 15 19 18 14 12 19 20 17 13 11 14 21 25 22 19 20 20 18 16 16 16 20 22 23 23 23 25 26 28 28 27 24 26
28 28 28 27 27 27 27 25 22 21 20 18 17 16 13 11 12 15 16 16 18 10 8 15 15 19 19 23 20 18 19 18 17 18 19 18 17 14 12 12 13 11 11 13 12 9 12 15 11 16 14 16 12 17 13 16 15 13 19 15 11 15 17 22 19 22 21 22 25 27 25 21 20 17 18 20 21 23 25 25 27 28 29 29 27 26 26
29 28 28 27 27 26 26 26 25 25 20 20 13 15 11 12 12 14 14 15 16 12 13 13 15 15 12 25 21 20 19 19 19 18 19 18 17 16 13 13 11 12 11 9 12 12 12 13 18 12 14 17 15 14 14 18 17 18 15 16 12 10 18 18 14 15 18 23 28 21 18 23 20 21 20 21 22 25 26 27 28 28 28 28 29 30 30
29 29 28 28 27 27 26 25 25 27 23 19 15 13 12 8 8 13 17 14 13 20 15 14 15 12 12 14 15 18 18 18 18 18 18 18 18 17 17 17 15 15 17 17 16 17 18 19 12 12 12 11 11 19 17 13 13 14 16 12 12 18 14 15 15 16 22 27 25 18 25 26 25 22 22 23 24 25 26 27 27 28 29 30 30 30 30
29 29 28 28 27 27 26 25 24 26 25 22 15 19 13 15 13 16 18 18 16 19 12 10 12 10 10 12 14 14 16 17 18 18 18 18 18 18 18 16 16 16 17 14 14 19 16 16 13 16 12 12 13 15 12 17 17 16 13 12 13 13 11 14 13 19 27 27 19 20 26 28 26 25 24 24 24 27 28 28 28 29 30 30 30 30 27
29 29 29 28 26 25 25 24 24 25 24 19 18 13 11 8 16 17 19 20 16 17 10 11 15 12 13 10 11 14 14 16 16 17 17 17 17 16 16 16 17 15 15 15 16 17 11 16 11 11 9 14 12 11 17 20 19 21 14 14 17 16 15 15 18 23 26 22 25 28 28 29 27 27 25 25 25 27 29 29 29 26 30 30 29 27 27
29 29 28 27 26 24 23 22 20 21 21 18 18 17 15 13 16 23 21 14 18 16 12 15 12 12 14 9 10 9 11 10 11 12 14 12 19 16 18 18 19 19 17 17 15 16 18 11 12 13 14 12 11 13 17 19 18 20 17 16 16 17 18 21 25 25 23 26 30 31 29 27 27 28 33 27 27 28 29 31 31 31 27 29 28 26 24
29 29 28 27 24 19 20 21 18 13 15 12 7 6 6 4 9 13 10 18 16 13 11 8 8 9 10 16 13 10 9 13 12 7 15 12 13 11 15 12 15 15 6 11 11 13 13 14 12 14 14 16 10 17 19 18 21 19 17 18 18 21 24 24 23 25 27 28 26 30 35 32 29 27 29 29 29 30 31 32 31 31 29 28 27 27 25
30 29 28 26 24 22 21 19 21 14 11 11 12 12 11 7 14 9 17 13 13 8 14 7 12 9 12 13 15 15 15 16 12 9 13 10 11 10 14 13 12 11 14 15 13 14 12 12 15 15 12 16 14 19 20 22 20 21 21 20 22 25 25 25 25 27 27 25 24 26 28 30 31 30 28 28 30 29 28 30 29 29 29 28 26 25 25
30 29 26 24 23 20 21 17 17 15 12 11 8 12 17 16 13 13 12 13 11 14 4 7 13 12 12 12 7 14 10 17 11 10 12 9 12 13 10 10 6 8 6 11 14 11 11 11 11 15 16 17 15 18 20 24 22 22 22 23 24 26 25 27 26 26 25 26 29 29 31 30 32 30 30 29 31 32 31 30 29 29 29 27 25 24 22
29 27 23 21 22 17 18 12 15 14 16 11 11 12 17 18 14 14 9 9 14 12 11 8 14 12 10 11 11 11 13 12 10 10 14 8 14 11 10 11 18 13 9 10 14 12 15 11 12 15 10 13 12 20 24 23 24 24 24 24 25 24 27 27 28 27 28 27 28 28 31 30 30 31 31 31 31 30 29 29 28 26 26 26 25 23 21
28 24 22 20 14 14 18 12 9 9 13 15 19 19 23 14 13 12 12 13 15 11 16 9 16 13 12 12 14 13 16 10 12 10 8 8 9 8 9 11 14 9 9 13 11 13 11 12 12 15 12 17 15 22 22 22 24 26 25 25 25 25 26 27 26 29 31 30 30 31 31 31 30 31 31 31 30 28 28 28 27 26 26 25 23 22 21
26 21 19 15 16 10 11 10 9 11 8 11 10 11 13 13 12 12 11 14 10 8 12 16 16 13 12 14 10 17 15 10 13 10 9 4 10 11 6 9 8 8 10 12 12 11 8 9 16 17 15 20 21 21 21 21 21 22 24 25 25 26 27 26 29 32 32 33 33 32 31 30 30 29 30 30 29 28 27 26 24 24 23 23 22 21 23
20 16 19 12 15 11 7 12 9 5 12 9 11 13 13 10 12 12 10 9 9 15 11 16 14 11 13 10 15 13 14 8 8 10 12 12 10 6 11 8 8 9 14 13 11 18 9 13 15 16 17 19 21 20 19 21 20 20 19 20 22 25 27 29 27 28 28 27 29 29 28 33 32 31 29 29 28 26 25 24 23 23 22 22 21 19 21
12 13 7 14 6 13 12 7 3 12 12 13 14 14 11 12 12 12 10 11 14 10 13 17 10 9 12 12 17 13 12 13 8 9 11 12 13 10 10 10 13 7 10 7 13 12 8 12 13 15 16 18 21 18 21 21 22 20 21 22 23 24 25 27 28 27 24 25 26 26 25 26 26 28 29 28 27 26 25 25 22 22 22 23 21 21 19
20 18 12 10 17 17 18 20 16 15 14 11 13 10 9 10 12 7 9 12 16 13 15 12 15 15 13 9 11 13 16 10 10 13 9 11 9 11 7 8 8 8 8 8 12 10 6 10 14 13 16 19 23 22 22 22 22 21 23 23 24 26 26 27 27 25 26 28 27 26 27 27 27 26 26 25 25 25 24 24 23 21 20 20 17 17 17
20 20 22 24 24 21 19 14 16 14 9 12 10 12 12 8 8 15 17 13 16 15 17 16 14 17 20 17 10 14 15 9 10 6 9 11 6 9 8 9 8 8 8 12 11 10 9 10 11 12 19 23 23 22 23 23 23 23 24 25 24 25 26 27 27 26 26 27 27 27 27 27 26 26 25 25 26 26 24 23 22 20 18 18 18 18 18
21 16 12 17 12 13 11 12 12 12 13 12 9 10 11 10 15 17 16 18 11 12 15 12 12 15 15 11 13 13 12 9 10 11 7 9 9 10 9 7 9 6 8 11 13 10 9 11 9 15 22 25 26 24 23 23 23 24 25 25 24 26 27 27 27 28 27 27 27 26 28 27 25 25 25 24 27 26 23 21 20 21 20 20 20 17 16
10 10 12 11 9 9 10 11 12 13 9 16 14 14 12 11 12 14 9 14 18 18 17 19 18 20 16 15 14 16 10 12 11 8 11 9 11 8 6 10 7 13 12 11 10 13 11 10 10 21 25 25 26 25 25 26 25 26 27 26 26 27 27 26 28 29 28 27 27 27 26 25 23 25 25 23 23 23 22 22 21 21 19 20 19 18 17
12 10 10 9 10 8 12 11 13 13 13 14 15 16 16 15 14 14 18 17 17 17 18 17 18 19 15 15 10 14 13 16 10 11 11 11 7 9 10 7 11 12 12 10 11 13 9 10 13 23 26 27 27 27 26 27 27 28 29 29 28 28 27 28 30 28 28 27 28 28 26 26 25 25 24 23 24 25 24 22 22 22 21 21 19 19 17
11 11 13 10 7 10 18 12 14 14 16 15 21 20 18 17 14 18 16 13 13 13 17 17 18 16 15 18 15 15 16 11 15 8 13 13 11 9 8 8 8 10 10 13 11 13 14 17 20 22 26 28 29 28 28 28 28 28 30 32 32 30 28 29 29 28 28 28 27 26 25 24 24 24 23 24 23 23 23 22 22 21 21 20 20 20 18
13 13 13 9 11 15 16 17 15 18 15 17 17 16 17 17 14 14 14 12 12 15 14 15 17 16 17 18 12 10 14 13 13 10 10 11 11 9 8 9 9 12 12 12 10 11 13 15 19 23 26 28 29 29 29 29 30 30 30 29 29 30 29 29 29 28 28 27 26 26 25 24 22 23 22 22 21 20 19 20 22 20 20 20 19 19 21
12 9 16 15 13 17 18 19 17 16 12 13 11 14 12 9 12 16 13 10 9 9 14 16 16 14 14 15 15 13 16 12 13 13 11 8 12 11 10 9 12 14 15 11 13 14 15 16 19 25 27 28 30 31 30 30 30 31 30 31 31 30 30 30 29 28 28 27 26 25 24 23 23 23 23 22 21 21 20 20 23 21 21 20 19 19 17
12 11 15 12 17 14 14 17 18 20 16 16 12 13 15 17 18 15 12 13 12 15 15 18 13 13 14 17 16 12 14 16 16 15 12 11 14 14 14 12 11 14 14 16 11 13 12 15 19 23 26 29 29 31 31 30 32 33 33 32 31 31 30 31 29 27 27 27 26 25 24 23 23 23 23 22 22 21 20 19 20 20 20 20 20 20 19
11 15 14 15 13 15 13 9 14 15 15 14 14 16 15 17 20 17 13 14 13 13 12 14 9 18 14 17 15 14 15 18 15 16 14 15 14 15 14 12 13 11 12 17 15 11 11 16 20 23 26 28 28 30 30 30 28 31 31 31 30 30 30 29 29 28 28 27 26 25 23 23 24 23 22 22 21 21 21 20 20 20 20 20 20 19 19
15 16 22 19 19 14 15 16 15 14 13 16 16 16 17 17 17 16 14 13 13 13 15 20 20 19 16 16 16 17 22 16 17 16 16 16 18 15 16 14 11 15 10 13 11 10 14 16 18 23 26 27 29 29 30 31 31 31 31 32 32 31 30 29 28 28 27 27 25 18 25 23 22 21 21 20 21 21 22 21 20 20 21 21 22 22 20
16 19 17 19 21 23 18 16 17 16 18 16 19 17 13 16 15 11 11 14 14 17 20 19 23 20 16 18 19 11 13 13 18 14 15 16 17 15 13 14 13 15 14 13 13 12 11 12 16 19 24 27 28 29 30 30 31 31 31 32 32 32 30 30 29 28 26 26 26 24 23 22 22 22 20 21 21 22 23 22 21 20 21 22 20 20 20
Wind_Speed
14 13 11 10 10 9 7 7 7 6 9 5 3 1 3 4 3 4 10 10 12 8 7 8 8 9 6 6 15 10 7 3 2 3 2 6 6 5 6 6 7 9 10 13 17 17 11 17 14 14 15 14 13 13 21 18 19 18 13 17 10 8 4 11 11 9 13 13 12 12 8 12 17 16 14 12 13 15 12 9 10 9 8 10 7 6 5
14 13 13 12 10 8 8 7 7 7 7 6 4 4 4 5 6 7 7 9 8 7 7 8 9 9 8 9 10 2 5 5 2 3 4 6 4 7 6 4 8 8 12 11 16 16 7 15 16 12 14 12 14 19 19 19 14 18 12 12 12 7 8 8 9 10 9 8 10 10 11 11 11 12 14 15 16 16 14 12 6 7 11 14 9 6 4
15 14 14 13 12 9 8 7 7 7 5 8 3 4 2 5 5 6 8 7 6 6 4 7 5 8 8 8 9 6 5 2 4 4 8 7 6 6 7 10 5 7 11 10 14 18 12 10 15 8 12 9 8 12 17 18 14 14 14 13 10 9 8 9 11 14 15 14 14 14 15 15 10 12 16 13 14 18 15 12 10 5 9 15 7 6 9
16 15 15 15 14 13 10 6 6 6 7 6 4 4 3 7 5 6 7 7 6 8 9 7 7 4 6 6 7 6 7 4 5 7 9 10 9 9 10 8 8 8 9 9 14 16 10 10 9 10 9 10 11 9 16 12 14 11 6 4 11 6 3 6 5 6 9 10 10 11 12 11 14 17 13 14 14 13 13 8 6 7 5 6 6 17 16
17 16 16 16 15 14 11 7 6 7 7 7 7 5 5 5 4 5 6 6 8 8 6 6 5 2 2 4 2 5 5 2 6 7 8 6 8 8 11 9 9 9 11 9 12 13 13 11 11 11 8 10 10 14 14 17 12 13 9 10 8 5 7 5 4 2 2 4 5 9 13 15 16 13 12 13 13 9 11 7 8 3 7 4 5 21 20
17 17 17 16 15 14 12 8 8 8 9 5 3 4 3 2 4 3 3 2 5 6 5 3 2 3 3 3 5 5 6 6 6 4 10 8 6 6 5 11 10 11 8 8 8 15 13 12 10 10 7 10 13 13 17 18 10 10 11 13 7 7 5 5 10 8 6 4 1 9 14 13 12 13 13 12 11 10 12 11 5 5 5 5 11 14 17
17 17 17 16 15 14 12 11 10 8 8 5 5 4 1 3 4 3 7 2 1 3 5 4 2 3 2 3 5 10 10 10 9 7 6 6 7 10 3 8 13 13 13 8 7 11 7 7 8 6 10 12 13 12 17 14 12 13 12 10 6 6 5 8 8 9 10 7 5 3 11 11 8 6 4 6 10 9 8 5 4 2 5 19 17 14 16
18 18 17 17 17 16 15 14 11 11 12 6 5 5 3 2 1 1 2 2 4 4 2 0 2 3 5 3 8 7 9 11 8 8 9 3 7 7 9 8 13 15 13 12 7 8 11 11 7 6 10 12 12 12 11 11 14 16 13 10 4 6 3 7 9 9 9 10 10 4 9 12 14 11 10 10 11 12 12 14 19 22 16 17 20 21 15
18 18 18 18 18 17 16 15 15 15 13 5 5 1 1 2 0 3 2 4 2 2 3 4 5 5 5 8 8 8 11 11 8 9 7 7 3 5 9 8 11 14 7 7 3 1 6 5 3 7 7 5 6 6 9 13 15 16 9 8 3 3 6 6 8 7 8 9 12 13 12 16 16 12 11 8 7 8 7 6 5 14 18 19 19 14 10
18 18 19 19 19 18 17 16 15 15 17 7 4 3 1 3 1 2 1 0 2 3 6 7 5 6 8 11 11 7 4 3 7 4 5 7 8 7 6 9 2 9 18 12 6 4 8 10 9 2 7 7 7 7 10 12 12 9 9 9 8 9 8 6 6 7 7 8 10 15 14 12 7 6 7 7 8 10 13 14 15 15 19 15 8 9 12
19 19 18 19 19 18 16 15 13 11 10 4 4 3 3 4 1 2 2 1 2 6 4 5 7 5 6 3 4 3 8 5 3 1 3 2 3 5 5 3 7 5 11 10 7 10 12 9 9 8 7 7 8 5 1 12 11 12 10 8 10 12 12 7 8 6 7 8 6 8 9 10 4 3 4 6 3 10 15 13 12 10 5 6 10 16 17
19 19 19 19 18 17 16 15 14 10 7 6 4 5 3 3 5 4 2 2 0 4 3 4 3 4 5 6 9 9 10 8 4 3 0 2 4 5 14 11 5 3 6 3 4 10 14 8 10 10 11 12 11 7 5 7 5 6 10 8 9 11 7 3 4 5 8 7 7 6 7 3 1 4 2 4 9 14 16 13 9 11 16 19 20 19 17
20 19 20 20 19 19 17 16 13 11 8 6 5 5 2 2 5 4 2 3 1 2 1 3 4 3 3 10 12 13 13 11 12 10 3 2 6 10 6 10 12 10 6 2 9 10 9 8 9 10 11 6 10 12 11 10 6 1 5 5 5 6 8 6 3 5 6 6 6 6 3 4 2 3 7 9 12 14 17 16 13 9 11 16 19 18 17
20 20 21 20 19 19 18 16 14 11 8 7 6 6 4 3 5 4 2 2 2 3 4 2 7 8 7 9 11 12 11 11 10 10 8 6 10 11 11 9 11 7 2 5 1 8 9 6 4 5 6 2 4 5 8 9 8 7 10 11 8 6 5 6 7 10 8 5 4 4 7 7 5 8 7 9 8 9 5 7 5 6 10 13 18 18 18
21 20 21 21 20 21 18 17 15 11 5 6 6 6 5 4 5 4 2 3 3 5 2 4 3 7 6 7 7 8 8 8 9 8 10 9 10 8 8 7 5 2 3 1 5 3 3 3 4 6 5 2 2 3 4 4 3 5 4 3 7 9 5 5 6 4 7 8 6 6 4 5 7 7 8 0 4 6 11 12 7 5 9 13 17 18 18
21 22 22 21 21 21 20 18 15 10 6 6 5 4 4 3 3 5 5 5 6 3 6 7 6 6 7 7 8 8 6 4 6 8 9 8 9 8 6 5 3 2 3 4 5 3 1 4 5 4 4 4 2 3 2 3 2 3 2 3 2 2 1 2 4 4 5 6 5 5 7 2 4 11 10 7 3 3 6 5 6 7 10 13 15 17 17
22 22 22 22 22 22 21 18 15 9 5 5 5 2 3 4 5 4 6 4 6 4 7 10 8 6 3 7 5 6 3 3 4 5 5 8 9 9 8 6 4 5 7 5 7 7 6 4 7 6 4 11 8 5 9 6 6 5 3 7 1 1 1 1 4 4 5 5 5 4 4 3 6 10 9 8 6 6 5 6 5 13 13 14 15 16 17
22 22 22 22 22 21 21 19 16 11 6 6 8 2 1 3 5 6 6 4 5 6 8 10 10 9 8 6 6 4 3 5 5 5 6 8 8 7 8 8 8 5 4 2 5 5 5 6 6 6 5 2 5 9 4 5 7 6 8 5 6 6 6 7 5 4 4 5 4 6 4 5 9 9 8 7 5 5 6 5 8 16 16 15 15 15 15
22 22 21 21 21 21 20 18 16 13 7 6 7 8 2 1 2 4 4 7 5 4 8 11 10 10 10 6 6 6 5 5 3 3 3 3 4 5 1 5 4 4 5 2 3 3 3 2 1 5 5 5 6 3 6 4 2 3 2 4 3 3 1 2 3 5 5 6 3 5 6 2 6 7 7 6 5 4 3 8 14 19 18 15 15 16 14
21 21 21 21 21 20 19 19 17 14 8 4 4 4 3 1 1 2 5 5 5 7 8 10 11 14 11 12 10 9 9 7 11 4 2 3 2 4 3 4 6 2 2 3 2 2 3 5 3 1 5 6 5 5 6 5 4 4 1 3 2 2 1 4 3 1 2 3 7 5 4 3 6 10 6 5 2 5 9 13 15 15 17 18 15 14 14
22 21 21 21 21 21 19 18 19 17 12 6 7 5 1 3 2 3 4 4 6 2 6 8 9 12 12 12 10 11 10 9 10 8 6 3 4 3 4 2 4 4 2 2 3 4 1 3 4 0 4 2 5 6 5 5 6 4 6 4 6 7 3 2 4 5 3 5 4 3 5 12 10 8 3 4 7 10 13 13 15 15 15 15 14 14 12
22 21 21 21 21 21 20 18 17 16 13 8 8 7 3 4 1 2 2 4 4 5 3 5 5 6 6 8 7 6 8 9 8 6 7 3 3 2 2 1 5 3 3 3 3 1 3 1 2 3 3 4 5 3 9 6 5 5 4 2 3 9 6 7 5 8 5 5 5 6 9 11 6 6 11 10 12 11 13 14 15 15 13 14 13 14 13
22 22 22 21 21 21 20 18 16 15 12 11 7 5 6 3 2 1 3 4 5 1 1 2 1 7 6 10 9 7 6 4 4 5 5 7 1 2 4 2 3 3 2 4 5 5 2 5 3 2 4 3 3 6 5 2 5 6 4 8 7 5 7 9 10 10 14 12 9 8 10 9 9 8 9 11 12 12 13 15 14 13 14 13 13 15 15
23 22 23 22 21 20 19 18 18 16 15 13 8 6 4 4 3 2 4 5 2 4 6 8 6 6 10 11 11 8 8 8 8 5 2 3 4 1 5 5 4 3 3 4 3 5 4 3 3 0 3 4 1 6 5 4 4 6 6 4 4 4 2 1 7 12 4 5 5 9 11 10 11 11 11 10 11 11 12 12 13 14 14 14 15 15 16
23 22 23 23 23 22 20 20 19 19 18 17 13 7 8 4 1 4 5 3 1 0 3 3 7 8 7 7 7 9 10 7 6 5 2 1 4 5 5 4 5 6 5 4 1 2 0 1 4 2 3 3 5 2 4 4 5 5 4 5 5 6 1 8 9 5 2 9 9 9 10 10 11 10 10 11 13 13 12 12 13 14 14 15 16 16 16
22 22 22 22 22 23 22 20 19 17 18 20 14 7 5 5 5 4 6 5 4 2 3 4 7 6 7 8 11 10 9 9 10 10 10 10 10 8 5 3 4 3 3 1 2 1 0 0 1 2 5 2 5 2 3 7 6 2 1 7 6 6 5 2 6 8 11 13 12 11 12 10 9 9 9 11 11 12 14 14 15 16 17 17 16 14 15
22 22 22 22 22 21 22 20 18 17 16 15 10 6 5 3 4 6 6 6 6 2 1 4 4 7 8 11 9 8 9 9 8 9 9 9 8 5 5 4 4 3 3 4 4 3 3 4 3 5 4 5 4 6 3 5 5 4 6 5 2 5 6 10 8 9 9 9 12 16 10 8 9 10 11 12 12 14 15 15 16 17 17 17 16 16 16
23 22 22 21 22 21 20 21 20 20 17 17 9 6 4 4 4 5 5 6 5 3 1 3 3 5 3 11 9 9 9 9 9 9 8 9 9 8 6 5 4 3 3 1 3 2 3 3 6 3 3 5 4 4 5 7 6 6 5 6 2 2 8 5 4 5 6 12 17 10 8 12 10 11 11 13 13 14 16 17 17 17 17 16 17 18 18
23 23 22 21 21 22 21 20 20 22 19 16 6 5 4 2 1 5 7 6 4 7 2 4 4 1 2 6 6 8 9 9 9 9 8 9 9 8 8 8 6 5 6 6 5 5 5 6 3 2 3 3 2 6 5 4 4 5 6 4 5 9 6 7 7 7 12 16 14 9 12 12 13 13 12 13 13 15 16 16 16 17 17 17 17 17 17
23 23 22 22 21 21 21 20 20 21 20 9 6 6 4 4 4 6 8 7 6 6 1 2 2 2 2 4 6 6 7 8 9 10 10 8 8 8 8 7 7 6 6 4 3 5 4 4 3 5 4 4 1 4 2 5 6 5 5 5 4 5 4 5 2 10 12 13 10 11 13 15 14 14 13 13 14 15 15 16 17 17 18 18 18 16 15
23 23 23 22 21 20 20 19 19 20 19 8 7 3 2 1 5 8 13 9 7 6 2 2 3 3 3 2 4 5 6 7 7 7 8 8 7 7 6 6 7 5 4 4 4 5 3 4 2 2 1 5 3 2 5 7 6 7 6 7 7 7 6 7 9 12 14 12 14 15 16 15 14 15 15 15 15 16 16 16 17 17 18 18 17 16 15
23 23 22 22 21 18 17 18 17 17 9 7 6 5 4 4 6 11 12 9 8 5 2 3 2 2 2 1 2 2 3 3 3 3 5 4 7 5 8 7 6 8 6 5 4 4 5 3 3 5 4 3 4 2 6 6 7 8 8 8 8 8 9 11 13 13 13 15 18 18 17 15 14 15 15 17 17 17 18 18 18 17 15 15 15 14 14
23 23 22 21 20 15 15 17 15 8 5 6 6 5 3 3 8 9 8 8 5 3 3 1 1 1 2 5 4 2 2 4 3 1 5 4 4 2 4 4 5 5 2 1 3 3 4 4 2 4 5 6 1 4 6 5 8 9 9 8 8 10 12 13 13 13 14 14 14 15 17 16 16 17 18 17 18 18 19 19 19 17 16 16 16 16 15
23 23 22 21 20 18 16 15 17 11 8 5 4 3 3 5 9 8 8 5 4 0 3 0 2 2 2 2 4 5 4 5 4 1 3 2 3 0 3 3 3 3 4 4 3 3 3 3 4 4 3 5 3 5 6 8 11 11 11 11 12 13 13 14 13 14 14 13 12 13 15 17 17 17 17 18 18 17 17 17 17 17 17 16 14 14 14
23 23 21 20 18 16 17 14 7 5 4 4 0 4 7 13 10 10 7 4 2 2 0 1 3 2 2 2 1 5 2 7 2 2 2 2 4 3 2 1 1 1 1 3 3 3 2 3 3 4 5 6 4 5 5 11 12 12 12 13 13 13 14 14 14 14 13 14 15 16 17 18 19 18 18 17 17 17 18 17 17 17 16 14 14 14 12
23 21 19 17 17 14 7 7 5 5 5 2 3 7 14 14 11 6 4 4 4 3 2 1 3 3 2 3 3 3 3 2 3 2 4 1 4 3 2 3 4 3 1 1 4 4 4 2 3 4 2 3 3 6 9 11 13 13 13 13 13 13 13 15 16 16 15 16 18 17 18 18 18 19 18 18 18 18 17 17 17 16 15 14 13 13 11
22 19 18 17 9 4 6 3 2 1 4 5 10 15 17 10 5 5 4 4 5 2 5 1 4 4 3 3 2 3 4 2 3 2 1 0 2 1 1 2 4 1 2 3 3 3 3 5 1 4 3 5 5 10 11 12 13 13 13 13 13 13 14 14 16 17 18 18 19 18 17 18 18 16 17 16 16 17 17 16 15 15 15 14 13 11 11
22 17 7 5 5 2 3 2 1 3 7 9 8 5 4 5 3 3 2 3 1 2 3 4 5 3 1 4 2 5 5 2 3 2 2 0 2 2 1 1 1 2 3 2 3 2 1 2 4 5 6 8 10 10 10 9 10 12 13 13 13 13 14 15 16 17 19 19 18 19 19 18 18 17 16 18 17 16 15 14 13 12 12 12 11 11 12
16 5 6 4 4 2 1 3 3 2 5 4 3 3 2 1 2 2 2 1 1 4 2 5 3 2 4 2 4 3 4 0 2 2 2 2 1 2 2 1 1 1 4 2 4 6 1 3 4 5 6 8 9 10 10 10 10 9 9 10 11 13 14 15 15 16 16 15 16 16 16 16 18 17 15 15 15 14 13 13 12 12 12 12 10 10 12
3 4 1 4 1 4 4 3 2 5 4 3 3 3 1 2 3 2 1 2 3 1 2 5 0 1 2 1 5 4 3 4 1 2 3 3 2 1 1 1 2 1 2 1 4 3 1 3 3 4 5 7 9 10 10 11 11 9 10 11 12 14 15 15 14 13 13 14 15 15 15 15 15 15 15 15 15 14 13 12 11 11 11 11 11 10 10
7 6 4 2 6 5 6 8 6 4 3 3 2 1 1 2 2 1 1 3 3 2 2 3 4 5 4 3 3 3 5 2 3 4 2 3 1 3 1 2 0 0 1 2 2 1 1 2 3 4 5 7 10 11 11 11 11 11 11 12 13 12 14 15 16 15 15 15 14 14 15 16 16 15 14 15 14 13 13 13 12 11 12 11 10 9 8
7 6 7 9 9 8 7 3 3 3 1 2 1 3 3 2 1 3 3 3 4 2 6 5 4 6 8 6 1 4 4 2 2 1 1 2 0 1 2 2 1 1 1 2 2 2 1 2 3 4 7 11 12 11 12 12 12 13 14 14 14 14 15 16 15 14 15 14 14 14 14 16 16 14 14 13 12 12 11 12 12 11 11 10 9 9 9
17 11 6 5 3 2 2 3 2 1 2 2 2 2 2 2 3 4 4 3 2 2 4 2 3 5 5 1 4 3 3 1 2 2 1 2 1 1 2 1 1 1 2 3 2 2 3 3 3 5 10 12 13 12 12 12 12 13 14 13 13 14 16 16 15 16 16 15 15 15 15 15 15 14 13 13 15 15 13 11 11 11 10 10 10 8 8
3 2 3 2 2 1 1 3 1 1 2 2 3 4 4 4 4 3 2 3 5 5 5 7 7 8 5 3 2 3 2 3 2 0 2 1 2 2 0 2 1 3 2 2 2 3 3 2 3 8 11 12 11 13 12 13 13 14 14 14 15 16 16 15 15 16 16 15 14 14 14 14 14 13 13 10 9 11 11 11 11 11 11 11 10 9 8
3 2 2 2 1 1 1 1 2 2 4 4 3 5 4 6 5 4 6 3 4 6 7 6 7 8 5 6 2 3 2 3 1 2 1 2 2 2 2 1 2 2 2 3 2 3 2 2 4 11 13 14 13 14 14 14 14 15 15 16 16 17 16 17 17 16 15 15 16 15 14 14 13 13 13 12 13 13 12 11 12 12 11 10 10 9 8
3 3 3 3 1 3 2 2 2 4 3 3 5 8 7 7 5 8 4 3 4 3 6 7 7 7 4 6 3 3 3 2 4 1 2 2 2 2 1 1 1 3 2 3 3 5 4 7 8 10 13 14 15 15 15 14 15 15 16 17 17 17 17 17 17 16 15 15 14 14 14 13 13 13 12 13 12 13 13 11 12 11 10 10 10 10 9
3 2 2 2 3 3 3 4 4 4 4 6 7 6 7 7 6 3 4 3 4 6 5 6 7 6 5 6 2 1 3 2 2 2 1 3 2 2 0 2 2 2 3 4 3 3 4 5 8 11 13 14 15 15 15 15 15 16 16 16 17 17 17 17 18 17 16 16 15 14 13 13 12 12 11 11 10 9 10 11 11 11 10 11 10 9 10
3 2 3 3 3 3 7 5 6 6 4 4 3 5 4 2 4 4 5 3 3 2 5 6 6 5 5 4 4 3 4 3 3 3 2 1 2 1 2 1 2 3 3 3 5 4 5 6 8 11 13 14 16 16 16 16 17 18 18 17 18 19 18 18 17 16 16 16 16 14 13 13 12 12 12 12 12 11 10 10 12 11 10 10 10 10 9
2 3 2 3 3 2 4 7 7 8 6 6 4 4 5 7 7 6 4 4 4 6 5 6 3 3 3 4 4 3 4 3 3 3 2 2 2 3 2 3 4 5 3 4 3 4 4 6 9 12 14 15 15 15 15 16 17 18 18 18 18 18 18 17 17 16 16 14 14 13 13 12 12 12 12 12 11 11 10 10 11 10 10 10 10 10 9
3 3 2 3 3 4 4 2 4 5 6 5 5 6 5 6 8 6 5 5 5 4 4 5 3 4 3 3 3 3 3 3 3 3 4 5 3 3 3 5 3 3 4 5 5 2 3 6 9 11 13 14 15 15 16 16 17 17 17 17 16 16 16 17 17 17 16 14 14 14 13 12 12 11 12 12 11 10 10 10 10 10 11 10 10 10 10
2 3 5 6 6 4 5 6 5 5 4 6 6 6 6 6 7 5 5 4 5 5 4 6 4 5 4 3 3 3 3 3 4 5 4 4 3 4 5 5 4 5 3 4 4 3 5 6 7 9 13 14 15 15 16 16 17 17 17 17 17 16 16 16 17 16 16 15 15 14 13 13 11 11 10 10 11 12 12 11 10 10 11 11 12 12 10
3 5 5 6 9 10 8 6 6 6 7 7 7 7 5 6 6 2 3 5 4 6 6 5 5 5 3 5 4 2 1 1 3 4 5 4 3 5 4 5 5 6 6 5 5 3 3 4 6 10 12 13 15 15 16 16 17 17 17 17 17 17 17 16 16 15 14 14 14 14 12 12 12 11 11 12 11 11 12 11 11 10 10 10 10 10 10
Wind_Direction
352 350 350 351 351 345 338 338 330 337 316 284 190 174 217 241 41 131 175 180 181 200 234 210 213 225 227 222 244 250 237 272 324 285 256 277 235 263 251 235 229 226 250 212 184 187 181 193 196 177 181 166 200 188 189 181 184 194 189 199 169 52 228 189 206 188 192 200 179 180 223 227 203 204 221 209 209 210 230 221 219 221 221 233 207 124 121
354 354 353 351 354 346 341 342 339 335 330 321 322 227 218 154 144 134 138 175 194 228 206 205 209 219 217 245 272 290 300 295 297 238 257 261 219 225 223 240 245 234 221 235 186 181 183 194 197 185 171 178 187 190 191 176 190 196 171 207 140 202 208 213 181 199 180 183 196 200 207 224 227 204 206 216 210 208 222 237 206 218 220 232 216 152 169
359 358 360 356 358 358 349 346 338 329 323 315 293 263 253 130 120 123 150 176 222 228 258 310 241 205 234 250 259 270 245 244 273 293 266 296 272 271 257 256 261 228 203 223 182 182 204 175 200 177 183 148 166 188 185 192 187 196 177 206 144 220 185 202 199 192 185 189 189 195 194 200 208 221 209 224 239 208 204 215 201 216 228 228 216 86 120
358 357 359 358 359 4 5 340 330 321 324 314 262 279 276 186 131 151 163 197 217 242 268 275 279 255 238 246 263 277 269 220 227 252 270 261 264 263 275 270 289 283 225 216 199 178 183 198 170 193 178 141 181 185 194 196 197 162 48 187 167 194 170 208 250 233 201 198 198 191 194 194 208 211 211 204 234 251 221 216 211 208 221 216 85 139 135
356 355 356 357 357 2 5 1 339 334 319 301 283 269 261 293 141 164 171 180 218 241 236 253 248 267 317 260 321 269 245 263 285 272 272 242 261 258 243 248 237 227 219 231 196 177 171 181 176 174 105 195 167 188 196 194 182 100 164 209 190 184 199 187 124 219 190 53 206 173 200 199 203 191 202 209 208 230 233 213 218 230 231 100 115 137 142
354 355 354 355 354 1 2 2 344 340 322 303 244 270 235 218 106 195 55 266 181 206 222 231 263 347 312 291 318 276 276 267 262 273 252 271 265 265 229 238 244 229 203 199 202 179 179 177 185 163 185 160 168 182 189 188 123 174 181 195 191 184 186 176 166 176 126 116 199 185 198 209 202 197 197 203 203 202 213 221 265 36 289 145 148 143 135
354 354 354 355 357 358 358 355 346 330 324 306 248 287 163 268 74 340 62 8 69 22 53 48 9 310 318 305 291 277 280 282 275 254 247 224 241 223 262 242 212 217 210 179 192 187 151 179 146 161 193 199 161 175 175 175 165 190 186 177 160 206 156 177 164 130 135 114 80 154 128 90 95 124 156 216 207 212 191 169 140 192 133 137 145 131 130
355 355 354 354 353 352 349 347 342 332 325 274 263 243 280 79 19 58 59 287 86 105 78 304 213 228 226 251 239 257 277 282 273 232 224 209 227 212 249 242 214 201 200 165 197 201 188 182 140 163 194 162 181 166 180 158 180 191 183 170 135 225 138 166 144 126 121 129 129 116 152 117 81 73 99 106 106 100 98 96 96 105 120 123 126 123 115
354 354 353 350 347 346 345 344 345 332 341 275 227 273 286 342 226 118 252 125 104 122 193 205 223 246 224 228 260 260 262 261 235 214 229 232 221 189 234 257 217 201 182 122 160 112 98 162 81 132 156 172 218 209 171 178 179 180 144 150 201 206 146 176 154 127 122 139 142 140 114 97 81 58 49 65 89 88 70 89 113 125 125 125 120 117 125
351 351 349 348 345 345 343 342 343 335 322 290 308 296 70 275 279 265 266 191 163 217 205 219 208 237 223 209 237 234 202 226 163 165 204 238 263 293 301 299 103 81 91 72 80 200 120 98 99 156 190 189 149 183 204 187 176 169 162 156 169 178 168 168 167 143 127 121 137 147 152 127 111 39 360 347 75 80 93 83 82 100 122 133 153 149 141
349 347 345 346 345 342 339 338 334 331 316 337 328 316 340 325 273 222 260 270 177 238 256 249 242 275 306 230 234 192 145 164 200 239 139 270 297 280 294 96 106 87 77 79 26 99 88 87 98 124 132 132 137 67 166 185 179 174 168 163 186 187 184 176 167 157 137 150 174 174 180 189 129 52 346 323 75 112 97 89 83 75 79 57 95 127 137
347 344 341 342 341 339 336 332 328 327 315 298 311 292 304 325 284 267 246 271 270 259 234 258 268 289 303 47 81 102 140 172 118 87 226 289 329 56 107 110 156 109 67 49 65 99 121 169 127 83 71 81 95 121 61 78 100 144 155 204 190 178 167 149 172 141 152 153 177 199 195 115 21 239 45 38 64 94 95 84 84 95 96 101 110 127 136
347 342 339 341 339 337 336 331 326 321 303 292 270 273 325 342 295 281 268 276 212 221 24 38 274 266 54 79 86 92 97 113 143 173 146 136 52 66 101 150 127 116 126 319 173 167 99 69 66 70 63 60 97 100 107 98 99 112 190 185 209 179 175 148 193 125 132 152 184 188 127 83 162 101 108 101 108 111 91 71 58 77 102 118 123 131 130
345 342 339 338 333 334 335 331 327 325 297 269 265 250 273 248 268 266 259 290 116 79 280 57 50 51 64 79 85 95 102 99 104 119 106 84 79 75 77 81 97 124 180 255 146 137 137 142 99 80 59 39 107 110 102 82 60 137 160 169 205 184 162 173 149 155 166 171 153 71 129 138 136 146 148 163 153 188 175 113 56 73 114 126 126 127 126
346 341 340 336 333 337 335 334 332 325 311 259 253 262 257 248 253 282 321 241 326 112 37 72 2 332 38 63 86 91 89 107 106 96 100 98 91 95 103 119 139 157 210 278 119 118 125 119 101 119 141 174 157 141 129 114 87 47 40 138 161 154 173 200 145 160 162 137 126 145 169 208 191 192 178 167 25 39 83 102 107 107 121 131 133 133 133
346 343 340 335 334 338 336 336 335 322 294 235 243 251 268 279 257 257 269 283 309 49 44 37 348 324 315 73 54 58 87 90 94 117 115 108 107 114 105 123 130 174 77 64 99 66 237 131 133 144 145 155 168 122 134 121 118 68 105 129 49 89 156 126 190 165 158 179 179 179 182 71 107 159 174 183 191 177 160 136 120 152 145 145 142 138 138
346 343 339 338 336 338 337 339 338 326 305 223 240 234 267 208 220 277 294 295 279 51 20 20 346 325 321 54 58 64 23 76 124 116 117 120 121 116 126 119 129 180 188 208 167 177 171 135 186 144 145 153 163 154 136 141 148 136 134 139 139 124 133 221 223 176 185 179 190 162 43 111 151 140 153 166 162 206 206 228 176 162 158 151 147 144 143
343 341 340 338 338 338 339 345 345 346 308 230 239 275 93 162 238 282 268 276 306 53 27 19 11 26 39 7 29 43 300 139 104 98 114 118 124 133 126 150 158 182 261 186 182 179 168 162 167 175 141 90 107 152 146 135 128 152 168 167 165 182 174 196 181 185 169 198 128 95 100 76 125 139 151 141 163 191 204 240 123 152 151 152 147 143 142
342 341 339 338 339 340 340 347 356 358 333 262 254 260 127 172 211 259 278 281 256 62 36 24 22 39 17 344 28 20 49 15 18 144 119 138 82 52 24 57 333 168 228 147 205 187 185 122 313 142 138 149 179 128 126 128 120 28 70 119 126 147 196 170 191 204 174 195 134 74 90 98 128 143 138 138 178 205 178 78 128 142 144 143 144 141 140
340 339 340 339 338 339 341 348 0 8 348 334 278 312 45 215 179 274 298 318 337 75 36 33 21 39 32 29 23 22 359 16 0 333 70 97 130 206 150 149 192 201 161 202 176 340 210 182 139 192 164 149 100 112 99 82 42 73 56 357 321 40 276 193 176 134 195 164 122 151 176 182 227 142 118 26 279 81 109 123 129 137 136 139 140 138 136
340 339 338 338 339 341 343 349 359 4 359 341 303 289 209 136 200 219 249 296 310 17 64 26 33 39 29 34 27 10 11 11 2 3 4 66 19 288 196 170 162 207 168 199 213 170 262 152 191 185 42 155 146 214 139 123 112 38 360 73 57 8 271 147 72 360 243 171 151 73 48 128 155 181 137 101 88 125 127 131 131 136 137 137 137 136 132
340 338 338 339 340 342 343 346 351 358 356 347 314 276 306 96 194 265 278 268 302 46 47 38 4 39 44 43 35 20 11 360 354 343 329 356 114 355 35 23 36 15 13 311 156 137 227 62 68 161 169 115 175 165 147 155 147 120 62 307 163 18 41 17 74 33 22 54 92 103 112 122 108 80 108 109 115 123 132 129 135 137 137 138 133 131 133
341 339 339 339 341 342 341 341 343 347 351 351 314 287 358 3 148 157 254 274 221 113 147 130 113 54 48 43 37 28 26 22 344 339 349 334 295 122 22 355 82 3 8 13 342 323 158 178 197 169 157 151 150 137 183 247 124 151 110 37 71 67 60 98 89 84 91 68 63 85 105 116 120 104 104 110 115 120 129 133 134 137 135 136 130 134 134
340 340 338 338 338 340 338 339 342 346 346 345 327 310 353 7 3 259 248 255 300 112 77 36 32 34 15 18 19 31 23 39 33 39 36 324 342 74 126 50 360 194 93 24 335 345 28 8 66 31 135 47 296 168 159 151 136 116 116 132 79 69 297 160 100 157 162 78 103 110 114 123 106 110 111 110 115 123 130 132 131 134 134 131 137 134 135
340 339 338 337 336 337 339 341 344 345 344 344 335 264 247 276 113 310 321 323 310 311 68 62 46 15 33 20 33 31 25 29 61 64 121 285 335 349 39 41 6 5 53 27 237 231 161 184 176 149 107 85 312 113 49 134 133 175 134 103 154 124 125 96 109 100 69 124 135 126 100 102 111 116 121 113 115 118 121 127 129 129 132 136 134 132 132
339 338 338 336 336 335 336 337 339 340 341 335 325 318 354 6 340 288 270 269 302 330 103 70 70 47 30 41 38 28 19 30 39 52 51 57 51 49 80 95 84 39 48 28 296 296 133 121 75 85 122 108 300 86 68 20 114 132 104 73 8 97 193 131 100 97 97 113 127 133 121 116 123 121 116 121 125 125 126 132 130 131 133 134 134 135 137
338 337 336 335 335 334 332 332 333 336 333 330 323 301 330 2 7 1 353 347 312 151 84 98 88 68 50 49 36 28 29 32 37 39 46 43 56 65 61 69 76 82 73 83 38 51 48 52 57 78 73 84 51 73 122 121 107 99 87 93 109 176 126 99 109 126 149 160 158 148 135 141 137 135 133 128 125 130 128 130 131 134 137 139 137 139 139
336 335 334 334 333 333 331 330 329 331 331 323 298 272 293 345 19 11 1 343 341 313 126 137 120 102 63 44 24 37 26 32 27 36 44 52 49 41 44 45 32 61 82 145 143 121 106 106 81 74 88 107 118 91 88 91 91 79 91 104 317 172 126 178 161 173 169 151 155 171 122 127 133 136 135 132 131 134 136 137 138 140 140 137 137 136 135
335 333 332 332 332 331 330 329 327 326 327 323 278 269 244 285 17 39 13 337 297 296 67 59 85 46 40 30 6 45 40 35 37 34 38 42 53 57 55 46 55 73 71 65 65 70 72 67 51 88 89 2 347 132 148 119 99 103 94 65 40 83 84 34 16 89 110 137 169 147 135 137 139 136 136 134 136 137 136 138 140 141 140 139 139 140 143
332 331 330 330 329 328 328 326 324 324 324 309 271 252 229 134 47 30 6 342 327 322 260 137 107 87 112 24 35 36 42 40 46 43 43 44 44 43 50 60 65 56 65 67 77 83 77 85 80 82 101 292 240 151 137 114 109 107 128 131 131 130 77 19 65 117 135 146 133 125 130 130 133 134 135 137 140 140 140 142 143 142 142 141 140 140 140
330 327 327 325 324 322 323 322 322 323 319 317 299 280 282 131 56 17 350 335 326 305 344 94 93 111 88 39 7 26 46 44 43 45 51 46 43 47 50 62 60 64 81 68 71 74 111 98 98 91 157 62 337 202 131 124 127 137 146 140 143 142 146 103 100 119 128 122 122 127 130 128 130 132 134 139 138 139 137 137 138 141 143 145 143 142 141
328 324 322 321 319 318 314 316 317 322 309 357 8 18 16 2 339 322 321 314 311 278 159 125 157 166 90 122 89 331 26 26 77 71 47 24 63 51 68 53 61 39 47 79 86 83 62 72 97 135 145 59 299 136 128 127 132 127 136 135 131 130 126 114 124 122 121 130 134 129 126 129 138 137 135 138 137 136 137 139 139 141 148 137 134 134 136
324 321 317 316 314 308 307 309 307 317 310 327 317 287 58 32 298 293 321 318 270 265 307 215 106 123 204 108 155 145 23 234 137 326 72 339 81 97 77 93 87 74 356 97 56 80 102 100 93 85 38 297 234 106 110 112 124 131 131 128 132 127 124 124 125 126 133 139 141 137 137 139 137 134 135 136 138 139 141 141 142 146 144 143 143 141 142
320 317 314 310 309 308 303 303 296 283 263 256 229 149 118 22 345 336 323 279 294 32 257 99 161 218 107 129 219 120 271 297 81 258 100 31 323 270 90 97 49 76 0 65 123 122 109 111 102 102 135 59 64 99 101 116 128 130 129 126 121 124 129 130 133 137 140 140 136 131 130 130 132 135 137 139 140 140 139 140 145 143 143 142 142 141 143
316 313 311 305 301 300 300 291 295 257 278 257 228 78 357 339 332 301 293 301 243 185 292 239 267 160 174 211 223 111 280 281 132 31 79 78 304 58 93 75 92 109 64 284 88 78 102 83 173 150 94 111 97 111 133 137 134 127 129 131 132 135 139 137 139 142 141 137 133 132 135 138 138 139 139 137 141 143 146 148 149 147 148 146 146 144 146
313 309 303 303 299 288 278 231 230 261 221 248 33 356 336 320 314 296 280 274 295 311 208 191 239 201 199 207 174 109 226 89 84 90 68 162 108 344 97 114 102 54 310 1 96 116 106 160 258 111 159 128 116 134 135 137 133 135 137 139 144 145 144 142 141 142 139 135 131 136 139 143 143 142 144 147 147 149 152 152 149 149 146 146 148 148 152
305 305 301 290 273 219 237 238 166 304 351 337 298 304 292 288 250 245 232 234 199 245 293 168 230 207 241 60 68 115 236 173 217 168 162 155 71 347 96 114 86 128 145 99 97 102 116 257 66 79 77 103 111 116 130 139 136 138 141 142 145 144 142 142 143 139 137 135 139 143 146 146 142 147 145 148 150 149 151 148 151 156 153 152 148 155 151
306 298 283 219 206 233 239 213 103 12 334 291 281 277 195 204 222 183 189 218 96 316 244 267 268 86 118 244 135 119 260 108 255 144 117 71 188 100 354 63 73 251 111 86 84 350 29 54 87 95 81 90 113 126 134 138 135 140 143 146 143 143 144 144 148 145 142 145 150 153 152 150 149 153 153 150 150 154 155 154 154 150 152 147 156 162 154
291 265 232 238 224 212 20 38 21 312 268 270 239 253 195 222 249 192 200 207 143 222 174 243 212 121 207 165 105 139 320 210 173 206 160 106 298 110 269 136 140 252 111 140 124 254 148 103 117 119 114 127 132 130 136 137 143 142 146 141 144 144 149 151 153 153 156 155 154 155 151 152 150 150 150 150 154 156 154 157 155 151 152 153 165 170 152
334 266 242 211 223 24 336 86 120 289 241 221 195 259 219 198 242 213 185 225 214 211 145 226 47 190 317 238 158 156 161 282 260 178 123 120 309 340 125 66 94 237 151 151 109 260 208 138 136 134 137 153 132 143 142 145 143 144 141 149 145 146 151 156 155 152 151 146 147 148 147 148 151 150 153 153 155 153 155 156 153 156 154 163 164 173 172
5 336 318 344 5 333 331 314 297 243 226 224 179 232 307 220 227 1 210 224 225 171 232 299 155 209 182 273 198 165 130 256 285 6 78 87 67 285 153 97 335 251 154 108 128 218 224 136 173 172 150 147 146 153 149 151 146 147 149 149 149 152 154 149 150 154 152 151 152 152 152 153 152 151 152 154 154 155 163 155 158 166 171 154 159 178 164
339 317 316 305 290 285 283 252 231 198 229 268 211 210 211 247 157 218 235 238 195 173 183 206 189 195 176 212 161 107 130 331 323 277 210 136 169 293 98 135 202 226 135 71 138 228 190 165 192 128 132 142 148 154 155 151 151 152 153 155 157 158 156 153 157 154 156 154 154 152 152 154 153 153 154 153 153 158 167 158 164 166 174 143 165 182 178
282 257 255 291 255 230 241 231 188 236 186 194 230 215 189 219 219 221 198 225 19 261 132 220 22 38 64 53 97 15 59 158 243 215 230 106 134 259 170 148 214 194 101 141 219 175 198 180 196 141 144 147 156 159 160 153 153 153 153 156 159 160 157 159 158 156 157 157 153 153 154 155 155 153 158 168 164 167 168 164 164 168 164 151 182 176 167
254 266 245 224 242 215 199 238 167 191 256 213 181 207 193 221 205 203 239 196 164 225 161 194 180 207 171 206 214 136 152 160 249 303 74 111 208 134 149 198 148 74 134 192 216 188 204 171 199 143 145 146 159 161 156 156 157 154 155 160 160 160 160 159 157 156 156 154 156 155 157 157 159 158 165 170 167 163 157 169 166 179 163 166 176 167 164
264 229 234 225 200 179 117 316 176 199 214 211 221 221 198 210 219 201 225 126 193 199 155 208 172 202 174 159 225 146 221 163 150 236 156 195 203 182 207 128 114 181 199 193 205 207 158 188 126 134 149 158 163 163 158 161 161 161 159 160 161 162 163 161 161 161 158 159 160 160 163 162 163 163 167 168 172 170 171 181 167 182 175 181 174 173 162
230 240 204 182 345 276 208 213 176 219 227 217 209 226 230 219 213 218 175 125 233 152 186 181 186 193 157 163 234 166 191 174 169 182 154 194 171 178 54 50 206 211 217 222 204 216 208 207 169 161 160 163 165 164 163 163 162 162 164 165 165 165 166 164 165 163 162 161 161 168 165 167 166 168 171 174 183 180 173 179 173 184 180 188 177 180 161
253 265 265 261 248 208 209 231 205 216 225 214 226 224 238 244 229 35 60 205 218 198 183 172 202 186 168 169 195 154 197 191 160 132 222 207 168 95 270 230 211 215 201 223 224 212 228 176 162 154 159 162 165 164 165 165 167 167 169 166 167 168 167 167 168 168 166 166 166 170 167 172 170 172 175 180 189 186 174 187 176 203 186 194 183 189 173
260 259 239 222 223 201 209 223 244 239 235 270 232 231 248 278 283 225 186 214 272 232 188 179 197 178 176 168 236 203 185 176 141 170 213 117 117 187 170 215 234 221 218 215 217 220 228 153 154 152 159 163 167 168 168 169 170 171 171 171 172 172 171 172 171 170 169 170 169 172 171 176 173 174 176 180 179 185 191 188 172 190 189 199 182 205 196
302 305 249 223 239 227 224 222 221 239 226 212 230 245 232 230 230 241 166 177 201 222 195 192 184 179 196 152 215 181 187 151 168 168 164 198 176 181 188 212 211 226 217 234 245 187 176 137 144 150 158 166 170 172 172 173 171 174 174 174 175 175 174 175 176 173 174 175 175 178 176 178 182 180 181 178 183 180 188 192 181 186 191 193 191 196 196
248 229 246 252 237 238 248 248 238 247 223 204 200 220 220 223 226 202 140 205 207 218 185 229 181 219 183 158 208 187 208 182 204 156 193 200 202 199 213 228 203 226 216 199 226 169 142 132 144 157 164 170 171 174 173 174 173 174 176 176 177 177 179 178 178 176 177 180 181 184 182 180 188 185 185 183 187 180 181 190 194 196 194 194 200 199 200
228 259 241 234 241 238 199 225 222 228 234 213 207 214 206 215 226 188 151 218 180 198 194 205 178 223 183 182 216 196 215 188 196 195 201 207 203 215 212 221 217 238 273 131 188 180 157 145 162 165 169 172 175 177 175 174 174 177 176 178 179 180 181 183 181 180 182 184 183 187 188 187 189 188 186 188 193 195 187 184 193 206 198 196 204 205 197
222 220 231 232 238 261 252 234 238 244 239 216 208 206 197 212 210 156 112 229 191 209 200 199 199 196 194 206 203 209 118 175 219 205 212 220 211 216 207 223 237 218 208 168 177 154 151 164 167 169 173 174 176 178 176 174 176 178 178 179 180 182 182 184 185 185 185 187 185 188 190 189 187 195 191 195 196 202 203 193 187 205 206 205 205 209 206